This is the latest recevied weather packets stored in our database for station/object EA1AHA-13. If no packets are shown the sender has not sent any weather packets the latest 10 day(s).
| Time | Temp. | Humidity | Pressure | Rain* | Wind** | Luminosity | Snow |
|---|---|---|---|---|---|---|---|
| 1777971101 | 12.78° C | 77% | 1013 hPa | 0 mm | - | - | - |
| 1777970478 | 12.78° C | 77% | 1013.2 hPa | 0 mm | - | - | - |
| 1777969901 | 12.22° C | 79% | 1013 hPa | 0 mm | - | - | - |
| 1777969277 | 12.22° C | 77% | 1013 hPa | 0 mm | - | - | - |
| 1777968701 | 12.78° C | 76% | 1013.4 hPa | 0 mm | - | - | - |
| 1777968078 | 12.78° C | 73% | 1013 hPa | 0 mm | - | - | - |
| 1777967501 | 12.78° C | 74% | 1012.9 hPa | 0 mm | - | - | - |
| 1777966877 | 12.22° C | 75% | 1012.8 hPa | 0 mm | - | - | - |
| 1777966301 | 12.22° C | 75% | 1012.9 hPa | 0 mm | - | - | - |
| 1777965678 | 11.67° C | 76% | 1012.7 hPa | 0 mm | - | - | - |
| 1777965100 | 11.67° C | 77% | 1012.8 hPa | 0 mm | - | - | - |
| 1777964478 | 11.67° C | 77% | 1012.6 hPa | 0 mm | - | - | - |
| 1777963900 | 11.67° C | 77% | 1012.7 hPa | 0 mm | - | - | - |
| 1777963277 | 11.67° C | 77% | 1012.7 hPa | 0 mm | - | - | - |
| 1777962701 | 11.67° C | 78% | 1012.6 hPa | 0 mm | - | - | - |
| 1777962078 | 11.67° C | 77% | 1012.7 hPa | 0 mm | - | - | - |
| 1777961501 | 11.67° C | 77% | 1012.8 hPa | 0 mm | - | - | - |
| 1777960877 | 11.67° C | 77% | 1012.8 hPa | 0 mm | - | - | - |
| 1777960301 | 11.67° C | 77% | 1012.4 hPa | 0 mm | - | - | - |
| 1777959677 | 11.11° C | 78% | 1012.5 hPa | 0 mm | - | - | - |
| 1777959103 | 11.11° C | 79% | 1012.4 hPa | 0 mm | - | - | - |
| 1777958478 | 11.11° C | 78% | 1012.2 hPa | 0 mm | - | - | - |
| 1777957901 | 11.11° C | 79% | 1012.4 hPa | 0 mm | - | - | - |
| 1777957277 | 11.11° C | 81% | 1012.4 hPa | 0 mm | - | - | - |
| 1777956701 | 11.11° C | 80% | 1012.4 hPa | 0 mm | - | - | - |
* Rain latest hour (hover to see other rain measurements)
** Current wind speed in m/s (hover to see current wind gust speed)